Location: Akgöl Batakl???
(38.9482°N, 31.8837°E)
Time: 15:39:51
(UTC+00:00)

SeaSat 1 - Pass Details

Date: 08 May 2026
Orbit: 737 x 739 km, 108.0° (Epoch: 10 June)

Event Time Altitude Azimuth Distance (km) Brightness Sun altitude
Exits shadow 23:03:57 22° 313° (NW) 1,573 4.3 -31.1°
Drops below altitude 10° 23:05:48 10° 323° (NW) 2,251 5.2 -30.9°
Sets 23:08:09 0° 329° (NNW) 3,179 6.2 -30.8°
